• In Czech Republic
  • List of Countries
  • For 7 days
  • Water Temperature
  • Satellite Maps
  • Weather Map
  • Weather Widgets
  • user-avatar
    Login

    Hourly Weather Yerevan

    Today, 18 November, Saturday

    Time Temperature Precipitation Wind Pressure Humidity
    00:00 +10°C° 0 mm 1 mps 692 mmHg 46%
    01:00 +9°C° 0 mm 1 mps 692 mmHg 46%
    02:00 +9°C° 0 mm 1 mps 692 mmHg 46%
    03:00 +9°C° 0 mm 1 mps 692 mmHg 49%
    04:00 +9°C° 0 mm 1 mps 692 mmHg 50%
    05:00 +8°C° 0 mm 1 mps 692 mmHg 51%
    06:00 +8°C° 0 mm 1 mps 692 mmHg 51%
    07:00 +10°C° 0 mm 1 mps 692 mmHg 47%
    08:00 +11°C° 0 mm 1 mps 693 mmHg 42%
    09:00 +13°C° 0 mm 2 mps 693 mmHg 37%
    10:00 +14°C° 0 mm 2 mps 693 mmHg 35%
    11:00 +15°C° 0 mm 2 mps 693 mmHg 32%
    12:00 +16°C° 0 mm 3 mps 693 mmHg 30%
    13:00 +16°C° 0 mm 3 mps 692 mmHg 29%
    14:00 +16°C° 0 mm 3 mps 692 mmHg 29%
    15:00 +16°C° 0 mm 3 mps 692 mmHg 29%
    16:00 +14°C° 0 mm 3 mps 692 mmHg 33%
    17:00 +13°C° 0 mm 2 mps 692 mmHg 37%
    18:00 +12°C° 0 mm 2 mps 692 mmHg 41%
    19:00 +10°C° 0 mm 2 mps 692 mmHg 41%
    20:00 +10°C° 0 mm 2 mps 692 mmHg 42%
    21:00 +10°C° 0 mm 2 mps 692 mmHg 42%
    22:00 +10°C° 0 mm 2 mps 691 mmHg 43%
    23:00 +9°C° 0 mm 2 mps 691 mmHg 43%

    Tomorrow, 19 November, Sunday

    Time Temperature Precipitation Wind Pressure Humidity
    00:00 +9°C° 0 mm 2 mps 691 mmHg 44%
    01:00 +9°C° 0 mm 2 mps 691 mmHg 44%
    02:00 +9°C° 0 mm 2 mps 691 mmHg 43%
    03:00 +9°C° 0 mm 2 mps 691 mmHg 43%
    04:00 +9°C° 0 mm 2 mps 691 mmHg 43%
    05:00 +8°C° 0 mm 2 mps 691 mmHg 42%
    06:00 +8°C° 0 mm 2 mps 690 mmHg 42%
    07:00 +10°C° 0 mm 2 mps 691 mmHg 39%
    08:00 +12°C° 0 mm 2 mps 691 mmHg 35%
    09:00 +13°C° 0 mm 2 mps 691 mmHg 32%
    10:00 +14°C° 0.1 mm 2 mps 691 mmHg 33%
    11:00 +14°C° 0.1 mm 2 mps 691 mmHg 34%
    12:00 +13°C° 0.1 mm 3 mps 691 mmHg 35%
    13:00 +13°C° 0.2 mm 3 mps 690 mmHg 40%
    14:00 +13°C° 0.2 mm 3 mps 690 mmHg 45%
    15:00 +12°C° 0.2 mm 3 mps 690 mmHg 49%
    16:00 +13°C° 0.1 mm 2 mps 690 mmHg 53%
    17:00 +12°C° 0.1 mm 2 mps 690 mmHg 56%
    18:00 +10°C° 0.1 mm 2 mps 690 mmHg 60%
    19:00 +10°C° 0.1 mm 2 mps 690 mmHg 61%
    20:00 +10°C° 0.1 mm 2 mps 690 mmHg 61%
    21:00 +10°C° 0.1 mm 2 mps 690 mmHg 62%
    22:00 +9°C° 0 mm 2 mps 690 mmHg 62%
    23:00 +9°C° 0 mm 2 mps 690 mmHg 62%

    Day after tomorrow, 20 November, Monday

    Time Temperature Precipitation Wind Pressure Humidity
    00:00 +9°C° 0 mm 2 mps 690 mmHg 62%
    01:00 +8°C° 0 mm 2 mps 690 mmHg 62%
    02:00 +8°C° 0 mm 2 mps 690 mmHg 62%
    03:00 +8°C° 0 mm 2 mps 689 mmHg 62%
    04:00 +8°C° 0 mm 2 mps 689 mmHg 62%
    05:00 +7°C° 0 mm 2 mps 689 mmHg 63%
    06:00 +7°C° 0 mm 2 mps 689 mmHg 64%
    07:00 +8°C° 0 mm 2 mps 689 mmHg 60%
    08:00 +10°C° 0 mm 2 mps 690 mmHg 56%
    09:00 +12°C° 0 mm 2 mps 690 mmHg 53%
    10:00 +12°C° 0 mm 3 mps 689 mmHg 51%
    11:00 +13°C° 0 mm 3 mps 689 mmHg 50%
    12:00 +14°C° 0 mm 3 mps 688 mmHg 48%
    13:00 +14°C° 0.1 mm 3 mps 688 mmHg 49%
    14:00 +14°C° 0.1 mm 3 mps 688 mmHg 49%
    15:00 +14°C° 0.1 mm 3 mps 687 mmHg 49%
    16:00 +13°C° 0.1 mm 3 mps 687 mmHg 53%
    17:00 +13°C° 0.1 mm 2 mps 687 mmHg 57%
    18:00 +10°C° 0.1 mm 2 mps 687 mmHg 61%
    19:00 +10°C° 0.1 mm 2 mps 687 mmHg 62%
    20:00 +10°C° 0.1 mm 2 mps 686 mmHg 64%
    21:00 +10°C° 0.1 mm 2 mps 686 mmHg 65%
    22:00 +10°C° 0.1 mm 2 mps 686 mmHg 65%
    23:00 +9°C° 0.1 mm 2 mps 686 mmHg 66%

    21 November, Tuesday

    Time Temperature Precipitation Wind Pressure Humidity
    00:00 +9°C° 0.1 mm 2 mps 686 mmHg 66%
    01:00 +9°C° 0 mm 2 mps 685 mmHg 67%
    02:00 +9°C° 0 mm 2 mps 685 mmHg 68%
    03:00 +9°C° 0 mm 2 mps 685 mmHg 68%
    04:00 +9°C° 0 mm 2 mps 684 mmHg 69%
    05:00 +8°C° 0 mm 2 mps 684 mmHg 70%
    06:00 +8°C° 0 mm 2 mps 684 mmHg 70%
    07:00 +9°C° 0 mm 2 mps 684 mmHg 67%
    08:00 +10°C° 0 mm 2 mps 684 mmHg 63%
    09:00 +12°C° 0 mm 3 mps 684 mmHg 59%
    10:00 +13°C° 0 mm 3 mps 683 mmHg 57%
    11:00 +13°C° 0 mm 3 mps 683 mmHg 56%
    12:00 +14°C° 0 mm 4 mps 683 mmHg 54%
    13:00 +14°C° 0.1 mm 4 mps 682 mmHg 55%
    14:00 +14°C° 0.1 mm 4 mps 682 mmHg 56%
    15:00 +14°C° 0.1 mm 4 mps 681 mmHg 57%
    16:00 +13°C° 0.1 mm 3 mps 681 mmHg 62%
    17:00 +12°C° 0.1 mm 3 mps 681 mmHg 67%
    18:00 +12°C° 0.1 mm 2 mps 681 mmHg 73%
    19:00 +12°C° 0 mm 2 mps 681 mmHg 74%
    20:00 +10°C° 0 mm 2 mps 681 mmHg 74%
    21:00 +10°C° 0 mm 2 mps 681 mmHg 75%
    22:00 +10°C° 0 mm 2 mps 681 mmHg 74%
    23:00 +10°C° 0 mm 2 mps 681 mmHg 73%

    22 November, Wednesday

    Time Temperature Precipitation Wind Pressure Humidity
    00:00 +9°C° 0 mm 2 mps 681 mmHg 72%
    01:00 +9°C° 0.1 mm 2 mps 681 mmHg 71%
    02:00 +9°C° 0.1 mm 2 mps 681 mmHg 70%
    03:00 +9°C° 0.1 mm 2 mps 681 mmHg 69%
    04:00 +9°C° 0.4 mm 2 mps 681 mmHg 71%
    05:00 +9°C° 0.4 mm 2 mps 682 mmHg 72%
    06:00 +8°C° 0.4 mm 2 mps 682 mmHg 74%
    07:00 +8°C° 0.6 mm 3 mps 682 mmHg 73%
    08:00 +8°C° 0.6 mm 3 mps 683 mmHg 72%
    09:00 +8°C° 0.6 mm 3 mps 683 mmHg 72%
    10:00 +8°C° 0.2 mm 3 mps 683 mmHg 66%
    11:00 +9°C° 0.2 mm 3 mps 683 mmHg 60%
    12:00 +9°C° 0.2 mm 3 mps 683 mmHg 55%
    13:00 +9°C° 0 mm 3 mps 683 mmHg 54%
    14:00 +9°C° 0 mm 2 mps 684 mmHg 53%
    15:00 +9°C° 0 mm 2 mps 684 mmHg 52%
    16:00 +8°C° 0 mm 2 mps 684 mmHg 55%
    17:00 +7°C° 0 mm 2 mps 685 mmHg 57%
    18:00 +7°C° 0 mm 1 mps 685 mmHg 60%
    19:00 +7°C° 0.1 mm 1 mps 685 mmHg 61%
    20:00 +7°C° 0.1 mm 1 mps 686 mmHg 62%
    21:00 +6°C° 0.1 mm 1 mps 686 mmHg 63%
    22:00 +6°C° 0.1 mm 1 mps 686 mmHg 64%
    23:00 +6°C° 0.1 mm 1 mps 686 mmHg 65%

    23 November, Thursday

    Time Temperature Precipitation Wind Pressure Humidity
    00:00 +6°C° 0.1 mm 1 mps 686 mmHg 66%
    01:00 +5°C° 0.2 mm 1 mps 686 mmHg 68%
    02:00 +5°C° 0.2 mm 1 mps 686 mmHg 69%
    03:00 +5°C° 0.2 mm 1 mps 686 mmHg 71%
    04:00 +5°C° 0.5 mm 1 mps 686 mmHg 73%
    05:00 +5°C° 0.5 mm 1 mps 686 mmHg 75%
    06:00 +5°C° 0.5 mm 1 mps 686 mmHg 77%
    07:00 +5°C° 0.5 mm 1 mps 687 mmHg 77%
    08:00 +5°C° 0.5 mm 1 mps 687 mmHg 77%
    09:00 +5°C° 0.5 mm 1 mps 687 mmHg 76%
    10:00 +4°C° 0.4 mm 2 mps 687 mmHg 74%
    11:00 +4°C° 0.4 mm 2 mps 687 mmHg 71%
    12:00 +3°C° 0.4 mm 3 mps 687 mmHg 69%
    13:00 +3°C° 0.3 mm 3 mps 688 mmHg 68%
    14:00 +3°C° 0.3 mm 3 mps 688 mmHg 66%
    15:00 +3°C° 0.3 mm 3 mps 688 mmHg 65%
    16:00 +3°C° 0.2 mm 3 mps 688 mmHg 67%
    17:00 +2°C° 0.2 mm 3 mps 689 mmHg 68%
    18:00 +3°C° 0.2 mm 2 mps 690 mmHg 70%
    19:00 +2°C° 0.2 mm 2 mps 690 mmHg 70%
    20:00 +2°C° 0.2 mm 2 mps 690 mmHg 70%
    21:00 +2°C° 0.2 mm 2 mps 690 mmHg 71%
    22:00 +1°C° 0.1 mm 2 mps 691 mmHg 71%
    23:00 +1°C° 0.1 mm 2 mps 691 mmHg 72%
    Show more